Location: ?????
(31.8092°N, 35.2590°E)
Time: 01:59:50
(UTC+00:00)

ATLAS CENTAUR R/B - Pass Details

Date: 20 June 2021
Orbit: 472 x 671 km, 64.6° (Epoch: 13 June)

Event Time Altitude Azimuth Distance (km) Brightness Sun altitude
Rises 18:35:23 0° 350° (N) 2,832 5.9 -19.2°
Reaches altitude 10° 18:38:12 10° 9° (N) 1,967 4.6 -19.6°
Maximum altitude 18:41:20 19° 54° (NE) 1,521 3.5 -20.1°
Enters shadow 18:42:13 18° 69° (ENE) 1,571 3.4 -20.2°
